CST,Max TemperatureF,Mean TemperatureF,Min TemperatureF,Max Dew PointF,MeanDew PointF,Min DewpointF,Max Humidity, Mean Humidity, Min Humidity, Max Sea Level PressureIn, Mean Sea Level PressureIn, Min Sea Level PressureIn, Max VisibilityMiles, Mean VisibilityMiles, Min VisibilityMiles, Max Wind SpeedMPH, Mean Wind SpeedMPH, Max Gust SpeedMPH,PrecipitationIn, CloudCover, Events, WindDirDegrees
2011-11-1,51,42,33,37,32,28,93,70,43,30.05,29.85,29.66,10,10,10,13,8,18,0.00,0,,257
2011-11-2,44,36,28,34,26,21,93,67,42,30.24,30.18,30.08,10,10,10,17,8,21,0.00,0,,257
2011-11-3,51,38,26,25,21,19,74,57,28,30.19,30.13,30.08,10,10,10,21,8,28,0.00,0,,207
2011-11-4,57,47,37,21,19,12,52,35,18,30.05,29.93,29.81,10,10,1,24,11,37,0.00,0,,183
2011-11-5,55,46,37,39,34,23,81,63,43,29.80,29.66,29.54,10,10,10,15,11,21,0.00,0,,141
2011-11-6,51,44,37,43,39,30,87,80,62,29.51,29.39,29.30,10,8,2,24,16,36,0.00,6,Rain,170
2011-11-7,35,30,24,28,27,21,93,81,70,30.15,29.90,29.57,10,9,3,23,15,34,0.00,7,Snow,245
2011-11-8,46,32,17,28,21,14,93,70,40,30.16,30.12,30.08,10,10,7,16,4,21,0.00,1,,199
2011-11-9,32,28,24,28,24,21,93,83,69,30.05,30.03,29.99,10,8,3,15,8,24,0.00,4,Snow,258
2011-11-10,35,30,24,28,23,18,87,75,52,30.04,29.96,29.76,10,10,5,17,11,26,0.00,5,Snow,275
2011-11-11,46,38,30,34,29,21,87,72,53,29.73,29.52,29.44,10,10,2,15,10,22,0.00,4,Snow,230
2011-11-12,44,36,28,37,31,25,93,82,70,29.48,29.33,29.07,10,10,7,12,6,,0.00,0,,90
2011-11-13,39,36,33,30,29,28,87,79,65,29.26,29.17,29.04,10,10,4,13,10,20,0.00,8,Snow,257
2011-11-14,44,35,26,32,27,23,93,77,57,29.37,29.28,29.23,10,10,7,16,4,25,0.00,3,,230
2011-11-15,33,27,21,28,24,18,93,83,74,29.75,29.57,29.40,10,8,1,15,8,22,0.02,4,Snow,252
2011-11-16,24,20,15,19,15,10,93,80,68,30.01,29.89,29.76,10,8,2,15,11,20,0.00,5,Snow,255
2011-11-17,19,14,10,14,8,5,86,76,62,30.07,30.03,29.95,10,9,3,10,6,,0.00,5,Snow,247
2011-11-18,26,22,17,21,19,14,86,83,74,29.83,29.72,29.67,10,8,1,22,14,25,0.00,7,Snow,104
2011-11-19,24,16,8,19,7,1,86,75,67,30.21,30.00,29.74,10,10,2,17,11,23,0.00,5,Snow,331
2011-11-20,15,10,5,7,3,0,85,76,62,30.32,30.25,30.13,10,9,2,7,4,,0.00,3,Snow,227
2011-11-21,24,15,6,16,8,1,92,79,68,30.18,30.15,30.11,10,10,10,9,3,,0.00,0,,200
2011-11-22,33,25,17,32,24,14,100,85,80,30.11,29.98,29.91,7,5,4,17,8,28,0.00,6,,186
2011-11-23,44,37,30,34,30,27,93,76,65,29.90,29.82,29.76,10,9,5,16,10,22,0.00,0,,208
2011-11-24,44,40,35,36,32,30,81,73,66,29.69,29.61,29.59,10,10,10,14,9,22,0.00,0,,215
2011-11-25,35,34,32,32,29,28,87,85,81,29.80,29.76,29.67,10,10,10,16,8,21,0.00,6,,36
2011-11-26,33,30,28,30,28,25,93,86,81,30.16,29.97,29.83,10,8,2,21,10,28,0.00,8,Snow,336
2011-11-27,30,27,24,27,22,19,86,77,69,30.24,30.17,30.03,10,10,10,15,10,24,0.00,7,,298
2011-11-28,42,34,26,32,21,12,80,59,36,30.25,29.92,29.71,10,10,10,23,12,31,0.00,0,,243
2011-11-29,35,22,10,18,14,7,92,69,44,30.33,30.21,29.96,10,10,7,15,5,20,0.00,0,,210
2011-11-30,32,28,24,25,21,18,86,75,64,30.19,29.97,29.87,10,10,10,13,6,18,0.00,0,,345